When you browse on this site, cookies collect data to enhance your experience and personalize the content and advertising you see.
Visit our Privacy Policy to learn more. By continuing to use the site, you agree to this use of cookies and data.
  • In Hungary
  • List of Countries
  • For 7 days
  • Water Temperature
  • Satellite Maps
  • Weather Map
  • News
  • Weather Widgets
  • user-avatar
    Login

    Hourly Weather Almada

    Today, 21 July, Sunday

    Time Temperature Precipitation Wind Pressure Humidity
    00:00 +17°C° 0 mm 5 mps 762 mmHg 79%
    01:00 +17°C° 0 mm 5 mps 761 mmHg 82%
    02:00 +17°C° 0 mm 5 mps 761 mmHg 84%
    03:00 +17°C° 0 mm 5 mps 761 mmHg 84%
    04:00 +17°C° 0 mm 5 mps 761 mmHg 84%
    05:00 +17°C° 0 mm 5 mps 761 mmHg 84%
    06:00 +20°C° 0 mm 5 mps 761 mmHg 74%
    07:00 +22°C° 0 mm 5 mps 762 mmHg 65%
    08:00 +25°C° 0 mm 5 mps 762 mmHg 56%
    09:00 +27°C° 0 mm 5 mps 762 mmHg 50%
    10:00 +28°C° 0 mm 5 mps 762 mmHg 44%
    11:00 +30°C° 0 mm 5 mps 761 mmHg 39%
    12:00 +30°C° 0 mm 6 mps 761 mmHg 39%
    13:00 +32°C° 0 mm 7 mps 761 mmHg 39%
    14:00 +32°C° 0 mm 7 mps 761 mmHg 39%
    15:00 +29°C° 0 mm 8 mps 761 mmHg 42%
    16:00 +28°C° 0 mm 8 mps 761 mmHg 45%
    17:00 +26°C° 0 mm 8 mps 761 mmHg 48%
    18:00 +24°C° 0 mm 7 mps 761 mmHg 55%
    19:00 +22°C° 0 mm 6 mps 761 mmHg 62%
    20:00 +20°C° 0 mm 5 mps 761 mmHg 69%
    21:00 +19°C° 0 mm 5 mps 761 mmHg 73%
    22:00 +19°C° 0 mm 5 mps 761 mmHg 77%
    23:00 +18°C° 0 mm 4 mps 761 mmHg 81%

    Tomorrow, 22 July, Monday

    Time Temperature Precipitation Wind Pressure Humidity
    00:00 +18°C° 0 mm 3 mps 761 mmHg 83%
    01:00 +18°C° 0 mm 2 mps 761 mmHg 85%
    02:00 +17°C° 0 mm 2 mps 761 mmHg 87%
    03:00 +17°C° 0 mm 2 mps 761 mmHg 88%
    04:00 +17°C° 0 mm 2 mps 761 mmHg 89%
    05:00 +17°C° 0 mm 2 mps 761 mmHg 90%
    06:00 +20°C° 0 mm 2 mps 761 mmHg 80%
    07:00 +23°C° 0 mm 2 mps 761 mmHg 70%
    08:00 +25°C° 0 mm 2 mps 761 mmHg 61%
    09:00 +28°C° 0 mm 2 mps 761 mmHg 53%
    10:00 +30°C° 0 mm 3 mps 761 mmHg 46%
    11:00 +33°C° 0 mm 3 mps 761 mmHg 38%
    12:00 +33°C° 0 mm 4 mps 760 mmHg 38%
    13:00 +33°C° 0 mm 5 mps 760 mmHg 37%
    14:00 +34°C° 0 mm 5 mps 760 mmHg 37%
    15:00 +32°C° 0 mm 5 mps 759 mmHg 40%
    16:00 +30°C° 0 mm 5 mps 759 mmHg 43%
    17:00 +29°C° 0 mm 5 mps 759 mmHg 47%
    18:00 +27°C° 0 mm 5 mps 759 mmHg 57%
    19:00 +23°C° 0 mm 5 mps 759 mmHg 67%
    20:00 +21°C° 0 mm 5 mps 760 mmHg 77%
    21:00 +20°C° 0 mm 4 mps 759 mmHg 80%
    22:00 +20°C° 0 mm 3 mps 759 mmHg 83%
    23:00 +19°C° 0 mm 2 mps 759 mmHg 86%

    Day after tomorrow, 23 July, Tuesday

    Time Temperature Precipitation Wind Pressure Humidity
    00:00 +19°C° 0 mm 2 mps 759 mmHg 87%
    01:00 +19°C° 0 mm 2 mps 759 mmHg 87%
    02:00 +19°C° 0 mm 2 mps 759 mmHg 88%
    03:00 +19°C° 0 mm 2 mps 759 mmHg 89%
    04:00 +18°C° 0 mm 3 mps 758 mmHg 90%
    05:00 +18°C° 0 mm 3 mps 758 mmHg 90%
    06:00 +20°C° 0 mm 3 mps 758 mmHg 80%
    07:00 +24°C° 0 mm 3 mps 758 mmHg 69%
    08:00 +26°C° 0 mm 2 mps 758 mmHg 58%
    09:00 +27°C° 0 mm 3 mps 759 mmHg 53%
    10:00 +29°C° 0 mm 4 mps 759 mmHg 48%
    11:00 +32°C° 0 mm 4 mps 759 mmHg 43%
    12:00 +30°C° 0 mm 5 mps 759 mmHg 42%
    13:00 +30°C° 0 mm 6 mps 758 mmHg 41%
    14:00 +30°C° 0 mm 7 mps 758 mmHg 40%
    15:00 +29°C° 0 mm 7 mps 758 mmHg 42%
    16:00 +28°C° 0 mm 6 mps 758 mmHg 44%
    17:00 +28°C° 0 mm 6 mps 758 mmHg 47%
    18:00 +26°C° 0 mm 6 mps 758 mmHg 54%
    19:00 +23°C° 0 mm 5 mps 758 mmHg 61%
    20:00 +21°C° 0 mm 4 mps 759 mmHg 68%
    21:00 +20°C° 0 mm 4 mps 759 mmHg 72%
    22:00 +20°C° 0 mm 3 mps 759 mmHg 75%
    23:00 +19°C° 0 mm 3 mps 759 mmHg 78%

    24 July, Wednesday

    Time Temperature Precipitation Wind Pressure Humidity
    00:00 +19°C° 0 mm 2 mps 758 mmHg 80%
    01:00 +19°C° 0 mm 2 mps 758 mmHg 82%
    02:00 +19°C° 0 mm 1 mps 758 mmHg 84%
    03:00 +18°C° 0 mm 2 mps 758 mmHg 85%
    04:00 +18°C° 0 mm 2 mps 758 mmHg 86%
    05:00 +18°C° 0 mm 2 mps 758 mmHg 86%
    06:00 +21°C° 0 mm 2 mps 758 mmHg 74%
    07:00 +24°C° 0 mm 2 mps 758 mmHg 61%
    08:00 +27°C° 0 mm 2 mps 758 mmHg 48%
    09:00 +29°C° 0 mm 2 mps 758 mmHg 43%
    10:00 +31°C° 0 mm 3 mps 758 mmHg 37%
    11:00 +34°C° 0 mm 3 mps 758 mmHg 32%
    12:00 +34°C° 0 mm 4 mps 757 mmHg 33%
    13:00 +34°C° 0 mm 4 mps 757 mmHg 34%
    14:00 +34°C° 0 mm 5 mps 757 mmHg 35%
    15:00 +32°C° 0 mm 5 mps 757 mmHg 42%
    16:00 +29°C° 0 mm 6 mps 757 mmHg 49%
    17:00 +28°C° 0 mm 6 mps 757 mmHg 56%
    18:00 +26°C° 0 mm 5 mps 757 mmHg 65%
    19:00 +23°C° 0 mm 5 mps 757 mmHg 75%
    20:00 +22°C° 0 mm 4 mps 758 mmHg 84%
    21:00 +21°C° 0 mm 3 mps 758 mmHg 86%
    22:00 +21°C° 0 mm 3 mps 758 mmHg 88%
    23:00 +20°C° 0 mm 2 mps 758 mmHg 90%

    25 July, Thursday

    Time Temperature Precipitation Wind Pressure Humidity
    00:00 +21°C° 0 mm 1 mps 757 mmHg 91%
    01:00 +21°C° 0 mm 1 mps 757 mmHg 91%
    02:00 +21°C° 0 mm 1 mps 757 mmHg 92%
    03:00 +21°C° 0 mm 1 mps 757 mmHg 92%
    04:00 +21°C° 0 mm 1 mps 758 mmHg 93%
    05:00 +21°C° 0 mm 1 mps 758 mmHg 93%
    06:00 +23°C° 0 mm 1 mps 758 mmHg 82%
    07:00 +24°C° 0 mm 2 mps 758 mmHg 71%
    08:00 +26°C° 0 mm 2 mps 759 mmHg 61%
    09:00 +27°C° 0 mm 3 mps 759 mmHg 54%
    10:00 +28°C° 0 mm 3 mps 759 mmHg 47%
    11:00 +30°C° 0 mm 4 mps 759 mmHg 40%
    12:00 +29°C° 0 mm 4 mps 759 mmHg 44%
    13:00 +29°C° 0 mm 5 mps 759 mmHg 49%
    14:00 +29°C° 0 mm 6 mps 759 mmHg 53%
    15:00 +28°C° 0 mm 6 mps 759 mmHg 57%
    16:00 +27°C° 0 mm 6 mps 759 mmHg 62%
    17:00 +26°C° 0 mm 7 mps 759 mmHg 67%
    18:00 +24°C° 0 mm 6 mps 759 mmHg 70%
    19:00 +22°C° 0 mm 6 mps 760 mmHg 74%
    20:00 +21°C° 0 mm 5 mps 760 mmHg 78%
    21:00 +20°C° 0 mm 5 mps 760 mmHg 82%
    22:00 +20°C° 0 mm 5 mps 760 mmHg 86%
    23:00 +19°C° 0 mm 4 mps 761 mmHg 90%

    26 July, Friday

    Time Temperature Precipitation Wind Pressure Humidity
    00:00 +19°C° 0 mm 4 mps 760 mmHg 89%
    01:00 +17°C° 0 mm 5 mps 760 mmHg 89%
    02:00 +17°C° 0 mm 5 mps 760 mmHg 89%
    03:00 +18°C° 0 mm 4 mps 760 mmHg 90%
    04:00 +18°C° 0 mm 4 mps 761 mmHg 90%
    05:00 +17°C° 0 mm 4 mps 761 mmHg 90%
    06:00 +19°C° 0 mm 5 mps 761 mmHg 80%
    07:00 +21°C° 0 mm 5 mps 761 mmHg 69%
    08:00 +23°C° 0 mm 6 mps 761 mmHg 59%
    09:00 +24°C° 0 mm 7 mps 761 mmHg 53%
    10:00 +27°C° 0 mm 7 mps 761 mmHg 47%
    11:00 +28°C° 0 mm 8 mps 761 mmHg 41%
    12:00 +28°C° 0 mm 8 mps 761 mmHg 41%
    13:00 +28°C° 0 mm 8 mps 760 mmHg 41%
    14:00 +28°C° 0 mm 9 mps 760 mmHg 41%
    15:00 +26°C° 0 mm 9 mps 760 mmHg 43%
    16:00 +24°C° 0 mm 9 mps 760 mmHg 44%
    17:00 +23°C° 0 mm 9 mps 760 mmHg 46%
    18:00 +22°C° 0 mm 8 mps 761 mmHg 55%
    19:00 +20°C° 0 mm 8 mps 761 mmHg 63%
    20:00 +18°C° 0 mm 7 mps 761 mmHg 72%
    21:00 +17°C° 0 mm 7 mps 761 mmHg 73%
    22:00 +17°C° 0 mm 7 mps 761 mmHg 74%
    23:00 +17°C° 0 mm 7 mps 761 mmHg 75%
    Show more